sat.trackr.live / text

‹ back to catalog

STARLINK-32920

NORAD 62925 · 2025-027U

PAYLOAD ACTIVE UNKNOWN

§ Identity

Operator
Country
US
Launch date
2025-02-08
Launch site
AFETR
Launch vehicle
Mass (kg)
RCS (m²)

Purposes: comms

External: N2YO · Heavens-Above · Gunter

§ Orbital elements

Epoch: 2026-05-25T01:35:15.929376Z

Period
94.27 min
Inclination
42.9975°
Eccentricity
0.0000554
Mean motion
15.27591026 rev/d
Perigee alt
482.6 km
Apogee alt
483.4 km
Semi-major
6,861.2 km
B*
4.1336e-4
RAAN
57.4817°
Arg perigee
272.5763°
Mean anomaly
87.5025°
Rev number
7,322

§ Raw data

STARLINK-329201 62925U 25027U   26145.06615659  .00011134  00000+0  41336-3 0  99952 62925  42.9975  57.4817 0000554 272.5763  87.5025 15.27591026 73229

JSON: /api/v1/satellites/62925 · /tle

For live sub-satellite position, see the globe view (requires WebGL).

§ Visibility from observer

Set your observer location to see the next 7 days of passes ≥ 10°. The values pass through the URL so the page stays shareable.

No JS? Fill the form by hand. The geolocation button needs JavaScript.